����29�N�x�@��C��������Ԃɂ�鑪�茋��,,,,,,,,,,,,
,,,,,,,,,,,,
�P�@����n�_,,,,,,,,,,,,
�ɓ�s�l�c�i�ɓ�s�l�c��4����203�|2),,,,,,,,,,,,
,,,,,,,,,,,,
�Q�@���Ԓl�i�m��l�j������29�N5��11���`����29�N6��2��,,,,,,,,,,,,
,,,,,,,,,,,,
,�N,��,��,��,SO2,SPM,Ox,CO,NO,NO2,���x,���x
,,,,,ppm,mg/m3,ppm,ppm,ppm,ppm,��,%
H01,2017,5,11,1,***,0.054,0.029,***,***,***,17.1,89.8
H01,2017,5,11,2,0.002,0.065,0.026,0.4,***,***,17,88.8
H01,2017,5,11,3,0.002,0.062,0.017,0.5,0.005,0.022,17.1,88.5
H01,2017,5,11,4,0.001,0.037,0.022,0.5,0.003,0.023,16.7,86.5
H01,2017,5,11,5,0.003,0.037,0.03,0.4,0.001,0.018,17.3,85.1
H01,2017,5,11,6,0.003,0.026,0.024,0.5,0.003,0.016,17.7,80.1
H01,2017,5,11,7,0.004,0.041,0.029,0.5,0.004,0.015,19.1,71.3
H01,2017,5,11,8,0.002,0.062,0.032,0.4,0.006,0.017,21.2,61.3
H01,2017,5,11,9,0.002,0.037,0.036,0.3,0.008,0.019,22.7,52.2
H01,2017,5,11,10,0.001,0.036,0.04,0.3,0.007,0.019,22.4,53.3
H01,2017,5,11,11,0.001,0.04,0.043,0.3,0.008,0.018,24,48.5
H01,2017,5,11,12,0.001,0.055,0.046,0.3,0.009,0.024,24.6,44.1
H01,2017,5,11,13,0.001,0.044,0.054,0.2,0.006,0.019,25.4,41.4
H01,2017,5,11,14,0.001,0.042,0.053,0.3,0.008,0.026,26,40.6
H01,2017,5,11,15,0.001,0.039,0.053,0.3,0.01,0.026,26.1,41.2
H01,2017,5,11,16,0.001,0.042,0.057,0.3,0.006,0.024,25.7,42.4
H01,2017,5,11,17,0.001,0.051,0.066,0.4,0.003,0.016,23.1,54.9
H01,2017,5,11,18,0.002,0.051,0.067,0.4,0,0.012,23.8,57.7
H01,2017,5,11,19,0.002,0.042,0.067,0.4,0,0.012,23.4,52.9
H01,2017,5,11,20,0.006,0.059,0.04,0.4,0.004,0.039,22.9,53.4
H01,2017,5,11,21,0.002,0.051,0.034,0.5,0.006,0.038,21.9,58.9
H01,2017,5,11,22,0.001,0.054,0.032,0.5,0.005,0.027,21.6,56.8
H01,2017,5,11,23,0.001,0.056,0.024,0.5,0.009,0.026,20.3,64.1
H01,2017,5,11,24,0.001,0.049,0.019,0.5,0.006,0.025,20.3,64.9
H01,2017,5,12,1,0.001,0.049,0.01,0.5,0.008,0.029,19.5,70.8
H01,2017,5,12,2,0.003,0.063,0.003,0.5,0.017,0.035,18.9,71.8
H01,2017,5,12,3,0.001,0.052,0.008,0.5,0.013,0.027,18.2,73.2
H01,2017,5,12,4,0.001,0.051,0.004,0.5,0.02,0.035,17.5,75.9
H01,2017,5,12,5,0.002,0.079,0.002,0.7,0.037,0.041,18,74.9
H01,2017,5,12,6,0.003,0.075,0.004,0.6,0.033,0.04,18.6,70.2
H01,2017,5,12,7,0.002,0.061,0.013,0.6,0.029,0.031,20.4,63.5
H01,2017,5,12,8,0.002,0.054,0.023,0.6,0.017,0.03,21.9,55.9
H01,2017,5,12,9,0.002,0.07,0.023,0.7,0.019,0.034,22.8,54.3
H01,2017,5,12,10,0.004,0.077,0.036,0.7,0.018,0.031,25.6,46.8
H01,2017,5,12,11,0.005,0.079,0.054,0.6,0.006,0.027,26.6,43.8
H01,2017,5,12,12,0.005,0.061,0.062,0.5,0.006,0.028,26.1,45.6
H01,2017,5,12,13,0.003,0.059,0.082,0.4,0.001,0.013,26.4,45.8
H01,2017,5,12,14,0.002,0.062,0.084,0.3,0.001,0.013,26.7,45.8
H01,2017,5,12,15,0.003,0.051,0.08,0.4,0.002,0.016,26.7,42.5
H01,2017,5,12,16,0.002,0.076,0.078,0.4,0,0.011,24.2,57.2
H01,2017,5,12,17,0.002,0.064,0.066,0.3,0,0.016,23.7,63.1
H01,2017,5,12,18,0.003,0.057,0.053,0.4,0.001,0.023,23.5,60.8
H01,2017,5,12,19,0.003,0.06,0.058,0.4,0,0.017,22,61
H01,2017,5,12,20,0.002,0.053,0.062,0.3,0,0.012,21.8,62
H01,2017,5,12,21,0.002,0.061,0.06,0.4,0.001,0.014,21.8,60.8
H01,2017,5,12,22,0.002,0.056,0.065,0.4,0,0.012,21.5,61.9
H01,2017,5,12,23,0.003,0.107,0.065,0.3,0,0.011,20.7,75.1
H01,2017,5,12,24,0.002,0.09,0.07,0.3,0,0.01,20.5,74.8
H01,2017,5,13,1,0.002,0.109,0.075,0.3,0,0.006,19.2,83.7
H01,2017,5,13,2,0.001,0.1,0.071,0.3,0,0.007,18.5,87.7
H01,2017,5,13,3,0.001,0.065,0.074,0.3,0,0.006,17.9,84
H01,2017,5,13,4,0.001,0.058,0.073,0.3,0.001,0.009,18.3,81.3
H01,2017,5,13,5,0.001,0.068,0.072,0.4,0.001,0.009,17.9,83.3
H01,2017,5,13,6,0.001,0.054,0.073,0.4,0.001,0.011,17.3,84.1
H01,2017,5,13,7,0,0.06,0.07,0.4,0.003,0.013,17.1,84.1
H01,2017,5,13,8,0,0.043,0.063,0.4,0.003,0.011,16.8,83.4
H01,2017,5,13,9,0,0.04,0.053,0.4,0.009,0.024,16.5,87.8
H01,2017,5,13,10,0,0.04,0.058,0.3,0.005,0.014,16.7,90.5
H01,2017,5,13,11,0,0.044,0.057,0.3,0.006,0.015,17.4,91.5
H01,2017,5,13,12,0,0.034,0.057,0.3,0.004,0.014,17.3,92.1
H01,2017,5,13,13,0.001,0.05,0.035,0.5,0.008,0.028,16.8,92.2
H01,2017,5,13,14,0,0.04,0.039,0.4,0.01,0.028,17.1,92.4
H01,2017,5,13,15,0,0.046,0.035,0.4,0.012,0.031,17.7,92.5
H01,2017,5,13,16,0.002,0.058,0.031,0.7,0.011,0.033,17.7,92.6
H01,2017,5,13,17,0.002,0.048,0.033,0.7,0.005,0.031,18,92.7
H01,2017,5,13,18,0.003,0.052,0.035,0.7,0.002,0.027,18.3,92.4
H01,2017,5,13,19,0.003,0.051,0.041,0.7,0.002,0.023,18.3,85.4
H01,2017,5,13,20,0.002,0.049,0.042,0.6,0.002,0.017,18.1,84.1
H01,2017,5,13,21,0.001,0.055,0.042,0.4,0.001,0.013,18.2,84.1
H01,2017,5,13,22,0.001,0.056,0.031,0.5,0.001,0.019,17.9,84.8
H01,2017,5,13,23,0,0.038,0.03,0.5,0.001,0.016,17.6,86
H01,2017,5,13,24,0,0.061,0.025,0.5,0.003,0.015,16.8,87.9
H01,2017,5,14,1,0,0.075,0.02,0.5,0.002,0.016,16.9,89.5
H01,2017,5,14,2,0.001,0.091,0.022,0.5,0.001,0.012,16.9,90.1
H01,2017,5,14,3,0.001,0.08,0.015,0.5,0.002,0.019,16.5,90.4
H01,2017,5,14,4,0.002,0.086,0.016,0.5,0.002,0.018,16.5,90.4
H01,2017,5,14,5,0.002,0.075,0.012,0.7,0.002,0.018,16.2,89.5
H01,2017,5,14,6,0.001,0.073,0.016,0.6,0.003,0.018,17.1,90.3
H01,2017,5,14,7,0.001,0.053,0.023,0.5,0.002,0.013,17.9,85.5
H01,2017,5,14,8,0.001,0.034,0.027,0.4,0.006,0.011,18.9,78.3
H01,2017,5,14,9,0.001,0.039,0.031,0.4,0.003,0.008,20.7,68.2
H01,2017,5,14,10,0.002,0.036,0.037,0.5,0.003,0.013,21.6,67.5
H01,2017,5,14,11,0.003,0.055,0.042,0.7,0.002,0.011,23.4,63.1
H01,2017,5,14,12,0.003,0.044,0.052,0.4,0.001,0.009,24,60.7
H01,2017,5,14,13,0.002,0.037,0.059,0.3,0.001,0.007,25.1,55.5
H01,2017,5,14,14,0.001,0.046,0.064,0.3,0,0.004,24.3,61.2
H01,2017,5,14,15,0.001,0.046,0.06,0.3,0,0.004,23.6,63.8
H01,2017,5,14,16,0.001,0.039,0.063,0.3,0,0.004,22.7,70.2
H01,2017,5,14,17,0.001,0.041,0.063,0.3,0,0.004,21.4,69.6
H01,2017,5,14,18,0.001,0.03,0.061,0.2,0,0.004,20.4,75.1
H01,2017,5,14,19,0.001,0.039,0.061,0.2,0,0.004,19.5,79.6
H01,2017,5,14,20,0,0.028,0.058,0.2,0,0.004,19.5,81.4
H01,2017,5,14,21,0.001,0.026,0.058,0.3,0,0.006,19.5,81.9
H01,2017,5,14,22,0.001,0.035,0.058,0.3,0,0.007,19.5,82.1
H01,2017,5,14,23,0.001,0.041,0.058,0.3,0,0.007,19.5,82.1
H01,2017,5,14,24,0.001,0.03,0.058,0.2,0,0.006,19.2,81.9
H01,2017,5,15,1,0.001,0.039,0.056,0.2,0,0.005,19.1,82.4
H01,2017,5,15,2,0.001,0.033,0.053,0.2,0,0.005,19.1,79.9
H01,2017,5,15,3,0.001,0.025,0.041,0.3,0.001,0.009,18.8,77.9
H01,2017,5,15,4,0.001,0.037,0.039,0.2,0.002,0.01,18.5,76.7
H01,2017,5,15,5,0.001,0.038,0.035,0.2,0.005,0.013,18.3,77.6
H01,2017,5,15,6,0.001,0.03,0.031,0.3,0.004,0.016,18.8,78
H01,2017,5,15,7,0.001,0.038,0.032,0.3,0.005,0.016,19.5,75.3
H01,2017,5,15,8,0.001,0.029,0.038,0.3,0.003,0.009,20.7,71.4
H01,2017,5,15,9,0.001,0.032,0.036,0.3,0.004,0.012,22.4,66.4
H01,2017,5,15,10,0.001,0.038,0.035,0.2,0.009,0.016,23.5,60.4
H01,2017,5,15,11,0.001,0.037,0.039,0.2,0.006,0.011,23.7,60.4
H01,2017,5,15,12,0,0.044,0.043,0.2,0.004,0.012,24.2,61.7
H01,2017,5,15,13,0,0.024,0.049,0.2,0.003,0.01,25.1,60.7
H01,2017,5,15,14,0,0.043,0.055,0.2,0.001,0.006,24.2,62.2
H01,2017,5,15,15,0,0.028,0.054,0.2,0.001,0.006,24.3,64.4
H01,2017,5,15,16,0,0.036,0.055,0.2,0,0.005,23.6,66.4
H01,2017,5,15,17,0,0.04,0.056,0.2,0,0.003,23.1,69.9
H01,2017,5,15,18,0,0.04,0.055,0.2,0,0.003,21.9,72.8
H01,2017,5,15,19,0,0.037,0.05,0.2,0,0.005,20.7,78.7
H01,2017,5,15,20,0.003,0.047,0.043,0.2,0,0.01,20.7,73.6
H01,2017,5,15,21,0.002,0.027,0.04,0.3,0.001,0.018,19.7,53.5
H01,2017,5,15,22,0.002,0.02,0.039,0.5,0.001,0.018,19.5,45.3
H01,2017,5,15,23,0.007,0.035,0.034,1,0.002,0.024,19,44.6
H01,2017,5,15,24,0.003,0.036,0.042,0.5,0.002,0.017,18.5,46.9
H01,2017,5,16,1,0.002,0.044,0.045,0.4,0.001,0.014,18,50.5
H01,2017,5,16,2,0.001,0.04,0.052,0.3,0.001,0.01,17.6,52.1
H01,2017,5,16,3,0.001,0.03,0.049,0.3,0.002,0.012,17.4,52.8
H01,2017,5,16,4,0.001,0.032,0.049,0.3,0.001,0.011,17.3,53.1
H01,2017,5,16,5,0.001,0.036,0.039,0.4,0.003,0.02,16.9,55.4
H01,2017,5,16,6,0.002,0.031,0.032,0.4,0.007,0.029,17.3,55.1
H01,2017,5,16,7,0.004,0.046,0.034,0.6,0.014,0.03,18.6,50.2
H01,2017,5,16,8,0.002,0.035,0.045,0.5,0.006,0.02,20.3,41.1
H01,2017,5,16,9,0.001,0.025,0.046,0.3,0.008,0.022,21.2,38.1
H01,2017,5,16,10,0.001,0.032,0.041,0.3,0.014,0.022,22.5,38.2
H01,2017,5,16,11,0.001,0.031,0.046,0.3,0.008,0.016,22.2,38.7
H01,2017,5,16,12,0.003,0.023,0.05,0.3,0.003,0.013,22.2,40
H01,2017,5,16,13,0.007,0.021,0.052,0.3,0.003,0.015,21.5,41.9
H01,2017,5,16,14,0.007,0.038,0.05,0.3,0.003,0.016,21.2,40.6
H01,2017,5,16,15,0.001,0.026,0.038,0.3,0.006,0.018,21.5,39.2
H01,2017,5,16,16,0.002,0.016,0.035,0.3,0.005,0.018,20.9,42.4
H01,2017,5,16,17,0.014,0.029,0.035,0.2,0.001,0.018,20.5,44.1
H01,2017,5,16,18,0.011,0.036,0.033,0.2,0.001,0.018,20,46.1
H01,2017,5,16,19,0.015,0.026,0.029,0.2,0.002,0.021,19.8,46.2
H01,2017,5,16,20,0.009,0.019,0.034,0.2,0.001,0.015,19.5,47.6
H01,2017,5,16,21,0.004,0.026,0.028,0.2,0.001,0.019,19.2,48.6
H01,2017,5,16,22,0.007,0.026,0.028,0.2,0.001,0.018,18.6,54.2
H01,2017,5,16,23,0.002,0.017,0.024,0.2,0.006,0.02,18.3,55.8
H01,2017,5,16,24,0.002,0.009,0.026,0.3,0.003,0.017,18,57.5
H01,2017,5,17,1,0.001,0.013,0.027,0.2,0.001,0.015,17.7,60
H01,2017,5,17,2,0.002,0.035,0.014,0.3,0.007,0.026,17.5,56.8
H01,2017,5,17,3,0.002,0.034,0.012,0.4,0.007,0.03,17.4,55.3
H01,2017,5,17,4,0.003,0.045,0.006,0.3,0.02,0.031,16.7,61
H01,2017,5,17,5,0.001,0.028,0.002,0.4,0.026,0.032,15.8,64.5
H01,2017,5,17,6,0.002,0.033,0.005,0.5,0.028,0.034,17.1,63.5
H01,2017,5,17,7,0.002,0.04,0.012,0.4,0.032,0.031,18.6,47.9
H01,2017,5,17,8,0.001,0.037,0.017,0.5,0.019,0.031,20.2,46
H01,2017,5,17,9,0.001,0.025,0.02,0.3,0.026,0.027,20.4,41.2
H01,2017,5,17,10,0.004,0.029,0.014,0.6,0.035,0.034,20.4,45.5
H01,2017,5,17,11,0.008,0.029,0.017,0.8,0.03,0.039,21.9,36.1
H01,2017,5,17,12,0.012,0.047,0.022,1.3,0.024,0.037,21.3,37.3
H01,2017,5,17,13,0.008,0.029,0.031,1,0.015,0.027,22.9,33
H01,2017,5,17,14,0.004,0.023,0.042,0.4,0.006,0.017,23,37.9
H01,2017,5,17,15,0.005,0.033,0.047,0.5,0.001,0.013,21.6,40.5
H01,2017,5,17,16,0.002,0.035,0.058,0.4,0,0.01,22.2,46.9
H01,2017,5,17,17,0.002,0.039,0.059,0.4,0.001,0.011,21.1,49.7
H01,2017,5,17,18,0.001,0.055,0.064,0.3,0,0.009,20.3,64.8
H01,2017,5,17,19,0.001,0.054,0.064,0.3,0,0.007,19,72.1
H01,2017,5,17,20,0.001,0.061,0.057,0.3,0,0.009,18.5,76.4
H01,2017,5,17,21,0.001,0.058,0.053,0.3,0,0.009,18.1,78.8
H01,2017,5,17,22,0.001,0.052,0.05,0.3,0,0.009,17.7,80.8
H01,2017,5,17,23,0.001,0.053,0.044,0.3,0.002,0.014,17.5,82.1
H01,2017,5,17,24,0.002,0.052,0.039,0.5,0.003,0.014,17.6,81.5
H01,2017,5,18,1,***,0.058,0.032,***,***,***,17.3,78.4
H01,2017,5,18,2,0.002,0.054,0.026,0.3,***,***,17.3,77.8
H01,2017,5,18,3,0.001,0.053,0.021,0.3,0.006,0.025,16.7,81.6
H01,2017,5,18,4,0.001,0.04,0.017,0.3,0.007,0.024,16.6,80.9
H01,2017,5,18,5,0.002,0.063,0.01,0.3,0.011,0.027,16.5,81.4
H01,2017,5,18,6,0.001,0.048,0.011,0.4,0.03,0.026,17.4,76.2
H01,2017,5,18,7,0.004,0.063,0.011,0.4,0.03,0.031,19.2,63.3
H01,2017,5,18,8,0.003,0.054,0.021,0.5,0.02,0.028,20.6,56.8
H01,2017,5,18,9,0.006,0.063,0.033,0.9,0.015,0.026,21.2,53.3
H01,2017,5,18,10,0.006,0.041,0.037,0.6,0.02,0.036,23.4,43.5
H01,2017,5,18,11,0.005,0.043,0.048,0.4,0.009,0.019,23.5,39.8
H01,2017,5,18,12,0.004,0.038,0.054,0.2,0.005,0.016,25.1,33.9
H01,2017,5,18,13,0.003,0.03,0.059,0.2,0.005,0.015,24.9,33.9
H01,2017,5,18,14,0.003,0.029,0.064,0.2,0.004,0.014,25.1,29.7
H01,2017,5,18,15,0.002,0.028,0.071,0.2,0.001,0.008,25.8,35.6
H01,2017,5,18,16,0.003,0.041,0.066,0.2,0.001,0.013,23.1,42.8
H01,2017,5,18,17,0.001,0.043,0.073,0.2,0,0.005,21.7,57.6
H01,2017,5,18,18,0.001,0.05,0.073,0.2,0,0.007,21.2,65.3
H01,2017,5,18,19,0.002,0.058,0.07,0.2,0,0.009,20.1,69.1
H01,2017,5,18,20,0.001,0.059,0.07,0.2,0,0.009,19.4,74.9
H01,2017,5,18,21,0.001,0.068,0.068,0.2,0,0.009,19.1,77.9
H01,2017,5,18,22,0.002,0.062,0.065,0.2,0,0.009,18.8,79.7
H01,2017,5,18,23,0.002,0.062,0.06,0.2,0,0.01,18.6,80
H01,2017,5,18,24,0.002,0.046,0.056,0.2,0.002,0.012,18.3,80.7
H01,2017,5,19,1,0.001,0.079,0.05,0.3,0.002,0.017,17.8,82
H01,2017,5,19,2,0.001,0.07,0.044,0.3,0.005,0.018,18.1,80.4
H01,2017,5,19,3,0.001,0.062,0.047,0.3,0.003,0.018,17.6,77.2
H01,2017,5,19,4,0.001,0.062,0.034,0.3,0.004,0.022,16.9,74.9
H01,2017,5,19,5,0.001,0.054,0.015,0.4,0.016,0.033,16.7,74.7
H01,2017,5,19,6,0.001,0.052,0.015,0.4,0.02,0.036,17.8,68.1
H01,2017,5,19,7,0.002,0.055,0.021,0.4,0.021,0.031,19.9,59.9
H01,2017,5,19,8,0.002,0.061,0.037,0.4,0.012,0.027,21.6,56.8
H01,2017,5,19,9,0.002,0.05,0.044,0.4,0.011,0.026,23.3,48.4
H01,2017,5,19,10,0.002,0.04,0.047,0.3,0.017,0.034,24.6,40.8
H01,2017,5,19,11,0.002,0.06,0.059,0.3,0.007,0.027,25.8,38.2
H01,2017,5,19,12,0.006,0.065,0.066,0.3,0.004,0.022,25.5,39.1
H01,2017,5,19,13,0.003,0.046,0.078,0.2,0,0.011,26.9,41
H01,2017,5,19,14,0.003,0.044,0.083,0.2,0,0.009,25.4,40.2
H01,2017,5,19,15,0.002,0.039,0.074,0.2,0,0.007,24.2,51.8
H01,2017,5,19,16,0.002,0.055,0.077,0.2,0,0.007,23.4,62.4
H01,2017,5,19,17,0.002,0.039,0.078,0.2,0,0.007,23.4,63.6
H01,2017,5,19,18,0.001,0.043,0.073,0.2,0,0.006,22.2,65.5
H01,2017,5,19,19,0.002,0.029,0.067,0.2,0,0.007,21.2,70.7
H01,2017,5,19,20,0.001,0.037,0.063,0.2,0,0.007,20.4,69.3
H01,2017,5,19,21,0.001,0.031,0.059,0.3,0,0.012,19.8,69.5
H01,2017,5,19,22,0.001,0.03,0.054,0.3,0.001,0.016,19.5,64
H01,2017,5,19,23,0.001,0.055,0.055,0.3,0,0.013,19.2,69.8
H01,2017,5,19,24,0.002,0.059,0.051,0.3,0.001,0.013,19,77.6
H01,2017,5,20,1,0.001,0.061,0.052,0.3,0,0.01,18.8,80.5
H01,2017,5,20,2,0.001,0.042,0.041,0.3,0.003,0.015,18.7,73.3
H01,2017,5,20,3,0.001,0.047,0.031,0.3,0.005,0.022,18.2,69.4
H01,2017,5,20,4,0.002,0.052,0.019,0.4,0.007,0.028,17.8,67
H01,2017,5,20,5,0.001,0.042,0.018,0.4,0.007,0.026,16.2,70.8
H01,2017,5,20,6,0.002,0.036,0.017,0.5,0.014,0.029,18.8,61.2
H01,2017,5,20,7,0.004,0.061,0.018,0.6,0.018,0.037,20.7,55.6
H01,2017,5,20,8,0.004,0.071,0.029,0.8,0.015,0.028,22.3,50.6
H01,2017,5,20,9,0.01,0.086,0.03,1.4,0.017,0.037,24.7,44.5
H01,2017,5,20,10,0.007,0.068,0.043,0.9,0.011,0.039,26.3,35.9
H01,2017,5,20,11,0.006,0.059,0.058,0.6,0.007,0.027,27.6,32.5
H01,2017,5,20,12,0.007,0.057,0.076,0.5,0.002,0.018,27.9,32.7
H01,2017,5,20,13,0.004,0.035,0.085,0.3,0,0.01,28.7,31.8
H01,2017,5,20,14,0.003,0.042,0.089,0.3,0.001,0.01,27.5,40.3
H01,2017,5,20,15,0.003,0.047,0.088,0.3,0,0.008,26.3,49
H01,2017,5,20,16,0.002,0.041,0.088,0.3,0,0.006,26.6,47.2
H01,2017,5,20,17,0.002,0.033,0.084,0.4,0,0.008,25.4,50
H01,2017,5,20,18,0.002,0.04,0.082,0.4,0,0.01,24.3,55.3
H01,2017,5,20,19,0.002,0.032,0.077,0.4,0,0.008,23.4,55.1
H01,2017,5,20,20,0.002,0.035,0.069,0.3,0,0.008,22.6,58.8
H01,2017,5,20,21,0.002,0.028,0.068,0.3,0,0.007,22.3,53.7
H01,2017,5,20,22,0.002,0.044,0.066,0.4,0,0.008,21.9,55.5
H01,2017,5,20,23,0.002,0.04,0.057,0.4,0,0.01,21.4,58.2
H01,2017,5,20,24,0.002,0.054,0.054,0.4,0,0.008,20.3,69.1
H01,2017,5,21,1,0.002,0.036,0.059,0.3,0,0.007,19.8,68.7
H01,2017,5,21,2,0.001,0.041,0.054,0.3,0,0.007,19.1,70.2
H01,2017,5,21,3,0.001,0.039,0.037,0.4,0.002,0.017,19.1,70.5
H01,2017,5,21,4,0.001,0.039,0.028,0.5,0.004,0.023,19.5,65
H01,2017,5,21,5,0.001,0.049,0.035,0.5,0.002,0.012,18.7,66.8
H01,2017,5,21,6,0.001,0.047,0.035,0.5,0.001,0.013,20.6,62.5
H01,2017,5,21,7,0.002,0.052,0.039,0.6,0.002,0.014,22.4,55.7
H01,2017,5,21,8,0.002,0.069,0.046,0.6,0.003,0.017,24.5,44.7
H01,2017,5,21,9,0.004,0.063,0.057,0.6,0.002,0.014,26.9,39
H01,2017,5,21,10,0.007,0.063,0.061,0.8,0.002,0.017,27.8,38.8
H01,2017,5,21,11,0.007,0.053,0.076,0.7,0.002,0.015,28.1,42.2
H01,2017,5,21,12,0.008,0.086,0.073,0.5,0.001,0.015,28.3,48.4
H01,2017,5,21,13,0.004,0.053,0.045,0.4,0,0.007,28.2,37.5
H01,2017,5,21,14,0.002,0.041,0.087,0.3,0,0.005,27,48.9
H01,2017,5,21,15,0.002,0.046,0.076,0.3,0,0.009,26.1,50.7
H01,2017,5,21,16,0.002,0.038,0.083,0.3,0,0.005,25.5,50.3
H01,2017,5,21,17,0.002,0.048,0.086,0.3,0,0.004,25.5,52.8
H01,2017,5,21,18,0.002,0.063,0.083,0.4,0,0.005,23.7,59.4
H01,2017,5,21,19,0.002,0.046,0.074,0.4,0,0.006,22.8,66.4
H01,2017,5,21,20,0.002,0.051,0.061,0.4,0,0.009,22.2,70.7
H01,2017,5,21,21,0.001,0.04,0.056,0.3,0,0.007,21.6,73.7
H01,2017,5,21,22,0.001,0.041,0.05,0.3,0,0.006,21.2,75.1
H01,2017,5,21,23,0.001,0.057,0.047,0.3,0,0.007,20.8,78.4
H01,2017,5,21,24,0.002,0.055,0.048,0.3,0,0.006,20.7,80.1
H01,2017,5,22,1,0.001,0.038,0.047,0.3,0,0.005,20.3,81.3
H01,2017,5,22,2,0.001,0.05,0.044,0.3,0.001,0.006,19.9,83.2
H01,2017,5,22,3,0.001,0.047,0.039,0.3,0.001,0.01,19.9,84.8
H01,2017,5,22,4,0.001,0.055,0.041,0.3,0,0.006,19.7,84.8
H01,2017,5,22,5,0.001,0.049,0.03,0.3,0.005,0.014,19.6,84.5
H01,2017,5,22,6,0.001,0.051,0.024,0.4,0.014,0.021,20.6,79.8
H01,2017,5,22,7,0.001,0.049,0.029,0.4,0.012,0.019,22.6,68.3
H01,2017,5,22,8,0.002,0.036,0.047,0.3,0.001,0.009,23.7,60.6
H01,2017,5,22,9,0.001,0.028,0.053,0.2,0.001,0.004,25.4,57
H01,2017,5,22,10,0.001,0.035,0.055,0.2,0.001,0.005,25.7,57
H01,2017,5,22,11,0.001,0.056,0.057,0.9,0,0.004,25.5,58.1
H01,2017,5,22,12,0.001,0.035,0.062,0.2,0,0.004,26.1,55.8
H01,2017,5,22,13,0.001,0.045,0.069,0.2,0,0.003,26.1,54.7
H01,2017,5,22,14,0.001,0.041,0.064,0.2,0,0.003,26.2,53.4
H01,2017,5,22,15,0.001,0.032,0.059,0.2,0,0.002,25.2,54.4
H01,2017,5,22,16,0,0.018,0.054,0.2,0,0.002,24.4,59.2
H01,2017,5,22,17,0.001,0.038,0.052,0.2,0,0.003,23.8,64.9
H01,2017,5,22,18,0.001,0.033,0.051,0.2,0,0.005,23,66.4
H01,2017,5,22,19,0.001,0.029,0.047,0.2,0,0.005,22.1,68.5
H01,2017,5,22,20,0.001,0.018,0.044,0.2,0,0.005,21.6,69.8
H01,2017,5,22,21,0.002,0.025,0.037,0.2,0,0.008,21.1,72.3
H01,2017,5,22,22,0.001,0.024,0.036,0.2,0.001,0.009,20.7,73.2
H01,2017,5,22,23,0.001,0.026,0.034,0.2,0.003,0.011,20.2,75.1
H01,2017,5,22,24,0.001,0.036,0.031,0.2,0.003,0.01,20,77.1
H01,2017,5,23,1,0.001,0.035,0.032,0.2,0.002,0.009,20,78.2
H01,2017,5,23,2,0.001,0.036,0.021,0.2,0.005,0.013,19.2,78.8
H01,2017,5,23,3,0.001,0.037,0.017,0.2,0.008,0.017,19.4,80.3
H01,2017,5,23,4,0.001,0.038,0.012,0.2,0.012,0.019,19.4,79.8
H01,2017,5,23,5,0.001,0.043,0.017,0.3,0.009,0.016,19.6,77.9
H01,2017,5,23,6,0.001,0.033,0.014,0.3,0.019,0.019,20.3,71.5
H01,2017,5,23,7,0.001,0.038,0.015,0.4,0.018,0.018,22,65.7
H01,2017,5,23,8,0.001,0.051,0.028,0.3,0.007,0.014,22.9,58.6
H01,2017,5,23,9,0.001,0.02,0.042,0.2,0,0.004,22.8,63
H01,2017,5,23,10,0.001,0.021,0.049,0.1,0,0.002,25.8,51.6
H01,2017,5,23,11,0,0.029,0.052,0.1,0,0.002,25.7,48.1
H01,2017,5,23,12,0,0.032,0.054,0.1,0,0.002,25.6,50.1
H01,2017,5,23,13,0,0.033,0.055,0.1,0,0.002,25.5,49.7
H01,2017,5,23,14,0,0.025,0.054,0.1,0,0.001,26,49.3
H01,2017,5,23,15,0.001,0.03,0.055,0.1,0,0.002,25.7,51.6
H01,2017,5,23,16,0,0.028,0.052,0.2,0,0.002,24.8,53.5
H01,2017,5,23,17,0,0.021,0.05,0.2,0,0.001,24,56.4
H01,2017,5,23,18,0,0.017,0.049,0.2,0,0.002,22.9,63.5
H01,2017,5,23,19,0,0.027,0.048,0.2,0,0.002,22.2,67.5
H01,2017,5,23,20,0,0.032,0.045,0.3,0,0.003,21.6,73.1
H01,2017,5,23,21,0,0.036,0.038,0.2,0,0.006,21.3,75.5
H01,2017,5,23,22,0,0.035,0.036,0.2,0.001,0.007,21.2,77.2
H01,2017,5,23,23,0.001,0.043,0.03,0.2,0.002,0.008,21,78.2
H01,2017,5,23,24,0.001,0.028,0.031,0.2,0.002,0.009,20.8,79.2
H01,2017,5,24,1,0.001,0.031,0.025,0.3,0.001,0.011,20.7,77.8
H01,2017,5,24,2,0.001,0.031,0.027,0.2,0.003,0.011,20.3,77.8
H01,2017,5,24,3,0,0.028,0.023,0.2,0.006,0.014,20,77.7
H01,2017,5,24,4,0.001,0.033,0.019,0.2,0.005,0.013,19.9,76.1
H01,2017,5,24,5,0.001,0.032,0.012,0.3,0.008,0.021,19.5,75.6
H01,2017,5,24,6,0.001,0.028,0.012,0.3,0.009,0.023,19.9,74.3
H01,2017,5,24,7,0.001,0.034,0.012,0.3,0.024,0.02,20.9,71.8
H01,2017,5,24,8,0.001,0.022,0.02,0.4,0.012,0.016,22.6,66.4
H01,2017,5,24,9,0.001,0.038,0.037,0.2,0.001,0.005,22.7,66.1
H01,2017,5,24,10,0.001,0.04,0.039,0.2,0.001,0.005,23.7,66.1
H01,2017,5,24,11,0.003,0.039,0.036,0.2,0.002,0.009,23,66.9
H01,2017,5,24,12,0.002,0.033,0.045,0.2,0,0.005,23.7,61.8
H01,2017,5,24,13,0.001,0.028,0.047,0.2,0,0.002,24.1,59.8
H01,2017,5,24,14,0,0.024,0.049,0.2,0,0.002,24.4,59.2
H01,2017,5,24,15,0,0.038,0.052,0.2,0,0.003,24.8,58.1
H01,2017,5,24,16,0.001,0.026,0.045,0.2,0,0.003,23.7,58.3
H01,2017,5,24,17,0,0.016,0.043,0.2,0,0.003,23,61.4
H01,2017,5,24,18,0.001,0.042,0.038,0.2,0,0.007,22.3,74
H01,2017,5,24,19,0.001,0.034,0.038,0.2,0,0.008,21.9,76
H01,2017,5,24,20,0.001,0.032,0.037,0.2,0,0.008,21.8,75.5
H01,2017,5,24,21,0.001,0.036,0.033,0.3,0,0.009,22.5,72.2
H01,2017,5,24,22,0.001,0.044,0.029,0.3,0.001,0.011,21.8,74.1
H01,2017,5,24,23,0.001,0.037,0.024,0.3,0.001,0.01,21.5,74.4
H01,2017,5,24,24,0.001,0.045,0.034,0.2,0,0.005,21.5,79.1
H01,2017,5,25,1,***,0.037,0.037,***,***,***,21.2,81.1
H01,2017,5,25,2,0.001,0.055,0.028,0.3,***,***,20.9,84.8
H01,2017,5,25,3,0.001,0.06,0.027,0.2,0.004,0.009,20.7,87
H01,2017,5,25,4,0.001,0.045,0.019,0.2,0.009,0.02,20.7,86.5
H01,2017,5,25,5,0.001,0.07,0.011,0.3,0.013,0.02,20.3,88.4
H01,2017,5,25,6,0.001,0.054,0.009,0.3,0.022,0.021,20.1,89.6
H01,2017,5,25,7,0.001,0.06,0.011,0.4,0.012,0.02,19.8,90
H01,2017,5,25,8,0.001,0.078,0.008,0.6,0.021,0.028,19.6,90.5
H01,2017,5,25,9,0.001,0.055,0.011,0.6,0.032,0.025,19.5,90.6
H01,2017,5,25,10,0.001,0.037,0.019,0.4,0.026,0.022,19.1,89.9
H01,2017,5,25,11,0,0.043,0.032,0.3,0.012,0.022,19.6,90.2
H01,2017,5,25,12,0,0.033,0.038,0.3,0.003,0.01,20.3,89.5
H01,2017,5,25,13,0,0.034,0.043,0.3,0.001,0.007,20.3,86.2
H01,2017,5,25,14,0.001,0.024,0.044,0.3,0.001,0.007,20.7,83.9
H01,2017,5,25,15,0.003,0.036,0.034,0.4,0.003,0.015,20.6,83.8
H01,2017,5,25,16,0.003,0.035,0.034,0.3,0.002,0.015,20.1,86.5
H01,2017,5,25,17,0.004,0.045,0.028,0.4,0.005,0.025,20.7,87.1
H01,2017,5,25,18,0.002,0.047,0.028,0.5,0.009,0.029,20.9,79.9
H01,2017,5,25,19,0.002,0.05,0.033,0.4,0.001,0.019,20.5,82.2
H01,2017,5,25,20,0.002,0.035,0.03,0.4,0.001,0.017,20.5,84
H01,2017,5,25,21,0.002,0.05,0.021,0.5,0.005,0.021,20.4,83.1
H01,2017,5,25,22,0.001,0.055,0.019,0.3,0.003,0.017,20.4,84.7
H01,2017,5,25,23,0.001,0.053,0.017,0.3,0.003,0.015,20.3,86
H01,2017,5,25,24,0.001,0.064,0.015,0.3,0.003,0.015,20.3,86.3
H01,2017,5,26,1,0.001,0.049,0.017,0.3,0.003,0.013,20,86.7
H01,2017,5,26,2,0,0.041,0.019,0.2,0.003,0.013,20.2,85.7
H01,2017,5,26,3,0,0.038,0.019,0.2,0.004,0.011,20.1,84.5
H01,2017,5,26,4,0,0.05,0.018,0.2,0.01,0.015,19.9,83.5
H01,2017,5,26,5,0,0.044,0.022,0.2,0.007,0.014,19.1,88.6
H01,2017,5,26,6,0,0.034,0.017,0.3,0.014,0.02,18.7,90.3
H01,2017,5,26,7,0,0.036,0.016,0.3,0.019,0.016,19.1,91
H01,2017,5,26,8,0,0.048,0.015,0.4,0.02,0.019,19.2,91.4
H01,2017,5,26,9,0.001,0.037,0.012,0.4,0.033,0.024,19.4,91.5
H01,2017,5,26,10,0.001,0.055,0.01,0.4,0.039,0.032,19.8,91.7
H01,2017,5,26,11,0.001,0.047,0.011,0.3,0.03,0.03,20.3,91.9
H01,2017,5,26,12,0,0.046,0.014,0.3,0.016,0.024,20.3,92
H01,2017,5,26,13,0,0.031,0.033,0.2,0.004,0.013,21.6,91.5
H01,2017,5,26,14,0,0.026,0.039,0.2,0.001,0.008,22.2,87
H01,2017,5,26,15,0,0.02,0.043,0.2,0.001,0.005,23,77.9
H01,2017,5,26,16,0,0.028,0.041,0.2,0.001,0.006,22.5,77.9
H01,2017,5,26,17,0,0.021,0.043,0.2,0.001,0.006,22,76.6
H01,2017,5,26,18,0,0.022,0.044,0.3,0,0.006,21,80.6
H01,2017,5,26,19,0,0.05,0.042,0.3,0.001,0.008,19.8,87.9
H01,2017,5,26,20,0,0.019,0.048,0.2,0,0.004,19.4,90.2
H01,2017,5,26,21,0,0.024,0.044,0.2,0,0.007,19.6,91.2
H01,2017,5,26,22,0.001,0.035,0.037,0.3,0.001,0.011,17.2,87.9
H01,2017,5,26,23,0.001,0.022,0.033,0.3,0.002,0.014,17.7,78.5
H01,2017,5,26,24,0.001,0.023,0.033,0.3,0.001,0.015,17.1,74.6
H01,2017,5,27,1,0.001,0.017,0.03,0.3,0.001,0.017,16.7,74.2
H01,2017,5,27,2,0.001,0.026,0.031,0.3,0.001,0.016,16.5,72.5
H01,2017,5,27,3,0.001,0.034,0.031,0.3,0.002,0.016,16.2,72
H01,2017,5,27,4,0.001,0.03,0.028,0.3,0.003,0.016,15.9,73.7
H01,2017,5,27,5,0.001,0.036,0.022,0.4,0.004,0.018,15.8,72.7
H01,2017,5,27,6,0.004,0.025,0.02,0.7,0.006,0.02,17.3,64.1
H01,2017,5,27,7,0.005,0.036,0.022,0.8,0.01,0.019,18.8,54.9
H01,2017,5,27,8,0.002,0.014,0.033,0.5,0.005,0.013,20.7,48.4
H01,2017,5,27,9,0.004,0.021,0.032,0.7,0.008,0.017,22,40.9
H01,2017,5,27,10,0.002,0.027,0.042,0.4,0.005,0.012,23.3,38.1
H01,2017,5,27,11,0.002,0.015,0.049,0.3,0.004,0.01,23.3,38
H01,2017,5,27,12,0.001,0.034,0.051,0.2,0.003,0.01,24.9,36.8
H01,2017,5,27,13,0.001,0.027,0.052,0.2,0.003,0.009,24.6,35.7
H01,2017,5,27,14,0,0.021,0.053,0.2,0.003,0.008,25.1,35.7
H01,2017,5,27,15,0.001,0.025,0.055,0.2,0.002,0.006,24,38.3
H01,2017,5,27,16,0.001,0.019,0.056,0.3,0.001,0.005,23.5,41.5